Content
SEND FEEDBACK

Daily
Averages
Monthly
Summary
United States of America

RAPID CITY, SOUTH DAKOTA


Home > North America > United States > South Dakota
Elevation: 3162 feet     Latitude: 44 03N     Longitude: 103 04W

WEATHER
 
SELECT A DAY
Number of Records: 200,194;   Date Range: 1/1/95 - 7/20/14
 
SHARE

PRINT THIS DATA

[ ← Previous Day ]
WEATHER ALMANAC - OCTOBER 18, 2013
[ Next Day → ]
[ °C ]   °F
Weather ElementAverageHighLow
Temperature36.4 °F43 °F (3:52 pm)28 °F (2:52 am)
Dewpoint28 °F32 °F (8:52 am)23 °F (6:52 pm)
Humidity72.6 %89 % (7:52 am)49 % (5:52 pm)
Barometer30.12 in30.20 in (9:52 am)29.97 in (11:52 pm)
Wind Speed10.7 mph24.2 mph (12:52 pm)
Wind Gust31.1 mph (12:52 pm)
Weather ElementAverage
Visibility10 mi
Wind DirectionWSW (239.2 °)

Weather ElementTotal
Precipitation---
Heating Degree Days29.5 (Base 65)
Averaged from 26 records on October 18, 2013
WEATHER CONDITIONS BREAKOUT
WIND DIRECTION BREAKOUT
WEATHER BY HOUR - OCTOBER 18, 2013
[ °C ]   °F
Local TimeTemperatureDewpointHumidityBarometerVisibilityWind DirectionWind SpeedGust SpeedPrecipitationEventsConditions
1:52 AM32.0 °F26.1 °F79 %30.14 in10.0 miCalmScattered Clouds
2:52 AM28.0 °F24.1 °F85 %30.14 in10.0 miCalmClear
3:52 AM32.0 °F25.0 °F75 %30.13 in10.0 miCalmOvercast
4:52 AM32.0 °F26.1 °F79 %30.14 in10.0 miCalmOvercast
5:52 AM33.1 °F27.0 °F78 %30.15 in10.0 miWNW (290°)3.5 mphOvercast
6:52 AM35.1 °F28.9 °F78 %30.16 in10.0 miNNW (330°)10.4 mphOvercast
7:03 AM33.8 °F30.2 °F87 %30.08 in10.0 miNNW (340°)17.3 mph20.7 mphMostly Cloudy
7:52 AM34.0 °F30.9 °F89 %30.18 in10.0 miNNW (340°)15.0 mphClear
8:52 AM36.0 °F32.0 °F86 %30.19 in10.0 miNNW (340°)20.7 mphMostly Cloudy
9:36 AM35.6 °F32.0 °F87 %30.12 in10.0 miNNW (330°)18.4 mph0.00 inOvercast
9:52 AM36.0 °F32.0 °F86 %30.20 in10.0 miNNW (330°)17.3 mph0.00 inOvercast
10:22 AM37.4 °F32.0 °F81 %30.13 in10.0 miNNW (330°)16.1 mphMostly Cloudy
10:52 AM41.0 °F28.0 °F60 %30.20 in10.0 miNW (320°)21.9 mph29.9 mphOvercast
11:52 AM41.0 °F28.0 °F60 %30.18 in10.0 miNNW (330°)21.9 mphOvercast
12:52 PM36.0 °F30.9 °F82 %30.17 in9.0 miNorth (360°)24.2 mph31.1 mph0.00 inOvercast
1:52 PM37.0 °F32.0 °F82 %30.14 in10.0 miNorth (350°)13.8 mph0.00 inMostly Cloudy
2:52 PM39.9 °F32.0 °F73 %30.14 in10.0 miNorth (350°)11.5 mphOvercast
3:52 PM43.0 °F30.9 °F62 %30.10 in10.0 miNNW (340°)13.8 mphOvercast
4:52 PM42.1 °F26.1 °F53 %30.10 in10.0 miNNW (330°)18.4 mphOvercast
5:52 PM42.1 °F24.1 °F49 %30.08 in10.0 miWNW (290°)11.5 mphOvercast
6:52 PM37.9 °F23.0 °F55 %30.07 in10.0 miWSW (250°)6.9 mphScattered Clouds
7:52 PM36.0 °F23.0 °F59 %30.07 in10.0 miCalmScattered Clouds
8:52 PM35.1 °F25.0 °F67 %30.06 in10.0 miCalmOvercast
9:52 PM39.0 °F27.0 °F62 %30.03 in10.0 miSW (220°)5.8 mphOvercast
10:52 PM36.0 °F26.1 °F67 %30.00 in10.0 miSSW (200°)5.8 mphMostly Cloudy
11:52 PM36.0 °F26.1 °F67 %29.97 in10.0 miWSW (250°)3.5 mphMostly Cloudy
Hourly data recorded from KRAP, located miles away from Rapid City, South Dakota







STORIES FROM OUR PARTNERS